Glendale Luke AFB, AZ

3:41 AM MST on February 19, 2018 (GMT -0700)
Luke Air Force Base

Weather History for KLUF - April, 2013

Change the Weather History Date:

Wednesday, April 3, 2013

  Actual Average Record
Temperature  
Mean Temperature 73 °F -  
Max Temperature 86 °F 80 °F 101 °F (1943)
Min Temperature 60 °F 45 °F 32 °F (1977)
Cooling Degree Days 8    
Growing Degree Days 23 (Base 50)    
Moisture  
Dew Point 34 °F    
Average Humidity 25    
Maximum Humidity 37    
Minimum Humidity 13    
Precipitation  
Precipitation 0.00 in - - ()
Sea Level Pressure  
Sea Level Pressure 29.93 in    
Wind  
Wind Speed 6 mph (NW)    
Max Wind Speed 10 mph    
Max Gust Speed -    
Visibility 10 miles    
Events      
Averages and records for this station are not official NWS values.
T = Trace of Precipitation, MM = Missing Value Source: NWS Daily Summary

Daily Weather History Graph

Daily Weather History Graph

Search for Another Location

Airport or City:

Trip Planner

Search our weather history database for the weather conditions in past years. The results will help you decide how hot, cold, wet, or windy it might be!

Date:

Astronomy

Apr. 03, 2013 Rise Set
Actual Time 6:14 AM MST 6:51 PM MST
Civil Twilight 5:48 AM MST 7:16 PM MST
Nautical Twilight 5:19 AM MST 7:46 PM MST
Astronomical Twilight 4:49 AM MST 8:16 PM MST
Moon 1:39 AM MST (4/3) 12:25 PM MST (4/3)
Length of Visible Light 13h 27m
Length of Day
12h 37m
Last Quarter, 43% of the Moon is Illuminated
Apr 3
Last Quarter
Apr 10
New
Apr 18
First Quarter
Apr 25
Full
May 2
Last Quarter

Hourly Weather History & Observations

Time (MST) Temp. Dew Point Humidity Pressure Visibility Wind Dir Wind Speed Gust Speed Precip Events Conditions
12:58 AM 69.3 °F 32.2 °F 25% 29.88 in 10.0 mi NNW 5.8 mph - N/A   Clear
1:58 AM 63.1 °F 35.6 °F 36% 29.88 in 10.0 mi NW 8.1 mph - N/A   Clear
2:58 AM 61.7 °F 35.2 °F 37% 29.88 in 10.0 mi NNW 10.4 mph - N/A   Clear
3:58 AM 61.9 °F 34.9 °F 36% 29.90 in 10.0 mi NNW 9.2 mph - N/A   Clear
4:58 AM 60.8 °F 34.0 °F 37% 29.91 in 10.0 mi WNW 3.5 mph - N/A   Clear
5:58 AM 61.2 °F 33.6 °F 36% 29.94 in 10.0 mi NNE 5.8 mph - N/A   Clear
6:58 AM 60.8 °F 34.0 °F 37% 29.97 in 10.0 mi NE 4.6 mph - N/A   Clear
7:58 AM 66.6 °F 34.5 °F 31% 29.99 in 10.0 mi North 4.6 mph - N/A   Clear
8:58 AM 71.4 °F 35.6 °F 27% 30.00 in 10.0 mi NNE 6.9 mph - N/A   Clear
9:58 AM 76.6 °F 35.1 °F 22% 30.00 in 10.0 mi NE 6.9 mph - N/A   Clear
10:58 AM 78.6 °F 35.8 °F 21% 29.99 in 10.0 mi Variable 5.8 mph - N/A   Clear
11:58 AM 79.9 °F 34.5 °F 19% 29.97 in 10.0 mi NNW 4.6 mph - N/A   Clear
12:58 PM 82.0 °F 33.6 °F 17% 29.95 in 10.0 mi Variable 4.6 mph - N/A   Clear
1:58 PM 82.6 °F 30.9 °F 15% 29.94 in 10.0 mi Variable 1.2 mph - N/A   Clear
2:58 PM 84.4 °F 32.5 °F 15% 29.93 in 10.0 mi SW 2.3 mph - N/A   Clear
3:58 PM 86.0 °F 30.2 °F 13% 29.90 in 10.0 mi WSW 4.6 mph - N/A   Clear
4:58 PM 86.0 °F 32.2 °F 14% 29.90 in 10.0 mi SW 9.2 mph - N/A   Clear
5:58 PM 84.4 °F 32.5 °F 15% 29.88 in 10.0 mi SSW 8.1 mph - N/A   Clear
6:58 PM 81.7 °F 31.8 °F 16% 29.89 in 10.0 mi SSW 8.1 mph - N/A   Clear
7:58 PM 76.1 °F 36.1 °F 23% 29.91 in 10.0 mi SW 6.9 mph - N/A   Clear
8:58 PM 74.1 °F 33.8 °F 23% 29.93 in 10.0 mi WSW 3.5 mph - N/A   Clear
9:58 PM 75.2 °F 32.0 °F 21% 29.93 in 10.0 mi SW 5.8 mph - N/A   Clear
10:58 PM 69.8 °F 35.1 °F 28% 29.94 in 10.0 mi North 5.8 mph - N/A   Clear
11:58 PM 65.3 °F 38.3 °F 37% 29.96 in 10.0 mi North 3.5 mph - N/A   Clear